Year,Month,Day,Hour,Minute,Value (Times are PST for temperature in C)
2007,10,30,00,00,2.00
2007,10,30,00,01,1.90
2007,10,30,00,02,1.90
2007,10,30,00,03,1.90
2007,10,30,00,04,1.90
2007,10,30,00,05,1.90
2007,10,30,00,06,1.90
2007,10,30,00,07,1.90
2007,10,30,00,08,1.90
2007,10,30,00,09,1.90
2007,10,30,00,10,1.90
2007,10,30,00,11,1.80
2007,10,30,00,12,1.80
2007,10,30,00,13,1.80
2007,10,30,00,14,1.80
2007,10,30,00,15,1.80
2007,10,30,00,16,1.80
2007,10,30,00,17,1.80
2007,10,30,00,18,1.80
2007,10,30,00,19,1.80
2007,10,30,00,20,1.90
2007,10,30,00,21,2.00
2007,10,30,00,22,2.10
2007,10,30,00,23,2.10
2007,10,30,00,24,2.20
2007,10,30,00,25,2.20
2007,10,30,00,26,2.30
2007,10,30,00,27,2.30
2007,10,30,00,28,2.30
2007,10,30,00,29,2.30
2007,10,30,00,30,2.30
2007,10,30,00,31,2.30
2007,10,30,00,32,2.20
2007,10,30,00,33,2.20
2007,10,30,00,34,2.30
2007,10,30,00,35,2.30
2007,10,30,00,36,2.30
2007,10,30,00,37,2.40
2007,10,30,00,38,2.50
2007,10,30,00,39,2.60
2007,10,30,00,40,2.80
2007,10,30,00,41,2.80
2007,10,30,00,42,2.90
2007,10,30,00,43,3.00
2007,10,30,00,44,3.10
2007,10,30,00,45,3.10
2007,10,30,00,46,3.10
2007,10,30,00,47,3.10
2007,10,30,00,48,3.00
2007,10,30,00,49,3.00
2007,10,30,00,50,3.00
2007,10,30,00,51,3.10
2007,10,30,00,52,3.10
2007,10,30,00,53,3.20
2007,10,30,00,54,3.20
2007,10,30,00,55,3.20
2007,10,30,00,56,3.20
2007,10,30,00,57,3.10
2007,10,30,00,58,3.00
2007,10,30,00,59,2.90
2007,10,30,01,00,2.80
2007,10,30,01,01,2.70
2007,10,30,01,02,2.60
2007,10,30,01,03,2.50
2007,10,30,01,04,2.50
2007,10,30,01,05,2.40
2007,10,30,01,06,2.40
2007,10,30,01,07,2.40
2007,10,30,01,08,2.50
2007,10,30,01,09,2.60
2007,10,30,01,10,2.70
2007,10,30,01,11,2.80
2007,10,30,01,12,2.80
2007,10,30,01,13,2.80
2007,10,30,01,14,2.90
2007,10,30,01,15,2.90
2007,10,30,01,16,2.90
2007,10,30,01,17,3.00
2007,10,30,01,18,3.00
2007,10,30,01,19,3.10
2007,10,30,01,20,3.10
2007,10,30,01,21,3.20
2007,10,30,01,22,3.20
2007,10,30,01,23,3.20
2007,10,30,01,24,3.20
2007,10,30,01,25,3.30
2007,10,30,01,26,3.30
2007,10,30,01,27,3.30
2007,10,30,01,28,3.30
2007,10,30,01,29,3.30
2007,10,30,01,30,3.30
2007,10,30,01,31,3.30
2007,10,30,01,32,3.30
2007,10,30,01,33,3.40
2007,10,30,01,34,3.40
2007,10,30,01,35,3.40
2007,10,30,01,36,3.40
2007,10,30,01,37,3.40
2007,10,30,01,38,3.40
2007,10,30,01,39,3.40
2007,10,30,01,40,3.40
2007,10,30,01,41,3.40
2007,10,30,01,42,3.40
2007,10,30,01,43,3.40
2007,10,30,01,44,3.40
2007,10,30,01,45,3.40
2007,10,30,01,46,3.40
2007,10,30,01,47,3.50
2007,10,30,01,48,3.50
2007,10,30,01,49,3.60
2007,10,30,01,50,3.60
2007,10,30,01,51,3.70
2007,10,30,01,52,3.70
2007,10,30,01,53,3.70
2007,10,30,01,54,3.70
2007,10,30,01,55,3.70
2007,10,30,01,56,3.70
2007,10,30,01,57,3.70
2007,10,30,01,58,3.70
2007,10,30,01,59,3.70
2007,10,30,02,00,3.70
2007,10,30,02,01,3.70
2007,10,30,02,02,3.70
2007,10,30,02,03,3.70
2007,10,30,02,04,3.60
2007,10,30,02,05,3.60
2007,10,30,02,06,3.60
2007,10,30,02,07,3.50
2007,10,30,02,08,3.50
2007,10,30,02,09,3.50
2007,10,30,02,10,3.50
2007,10,30,02,11,3.60
2007,10,30,02,12,3.60
2007,10,30,02,13,3.60
2007,10,30,02,14,3.60
2007,10,30,02,15,3.60
2007,10,30,02,16,3.60
2007,10,30,02,17,3.60
2007,10,30,02,18,3.60
2007,10,30,02,19,3.60
2007,10,30,02,20,3.60
2007,10,30,02,21,3.70
2007,10,30,02,22,3.70
2007,10,30,02,23,3.70
2007,10,30,02,24,3.70
2007,10,30,02,25,3.70
2007,10,30,02,26,3.60
2007,10,30,02,27,3.60
2007,10,30,02,28,3.60
2007,10,30,02,29,3.60
2007,10,30,02,30,3.60
2007,10,30,02,31,3.60
2007,10,30,02,32,3.60
2007,10,30,02,33,3.60
2007,10,30,02,34,3.60
2007,10,30,02,35,3.60
2007,10,30,02,36,3.60
2007,10,30,02,37,3.60
2007,10,30,02,38,3.60
2007,10,30,02,39,3.60
2007,10,30,02,40,3.60
2007,10,30,02,41,3.50
2007,10,30,02,42,3.50
2007,10,30,02,43,3.50
2007,10,30,02,44,3.50
2007,10,30,02,45,3.50
2007,10,30,02,46,3.50
2007,10,30,02,47,3.60
2007,10,30,02,48,3.60
2007,10,30,02,49,3.60
2007,10,30,02,50,3.60
2007,10,30,02,51,3.60
2007,10,30,02,52,3.60
2007,10,30,02,53,3.60
2007,10,30,02,54,3.50
2007,10,30,02,55,3.50
2007,10,30,02,56,3.50
2007,10,30,02,57,3.50
2007,10,30,02,58,3.40
2007,10,30,02,59,3.40
2007,10,30,03,00,3.40
2007,10,30,03,01,3.40
2007,10,30,03,02,3.40
2007,10,30,03,03,3.30
2007,10,30,03,04,3.30
2007,10,30,03,05,3.30
2007,10,30,03,06,3.30
2007,10,30,03,07,3.30
2007,10,30,03,08,3.30
2007,10,30,03,09,3.30
2007,10,30,03,10,3.20
2007,10,30,03,11,3.20
2007,10,30,03,12,3.20
2007,10,30,03,13,3.10
2007,10,30,03,14,3.10
2007,10,30,03,15,3.10
2007,10,30,03,16,3.10
2007,10,30,03,17,3.10
2007,10,30,03,18,3.00
2007,10,30,03,19,3.00
2007,10,30,03,20,3.00
2007,10,30,03,21,3.10
2007,10,30,03,22,3.10
2007,10,30,03,23,3.10
2007,10,30,03,24,3.10
2007,10,30,03,25,3.10
2007,10,30,03,26,3.20
2007,10,30,03,27,3.20
2007,10,30,03,28,3.20
2007,10,30,03,29,3.10
2007,10,30,03,30,3.10
2007,10,30,03,31,3.10
2007,10,30,03,32,3.10
2007,10,30,03,33,3.00
2007,10,30,03,34,3.00
2007,10,30,03,35,3.00
2007,10,30,03,36,3.00
2007,10,30,03,37,2.90
2007,10,30,03,38,2.90
2007,10,30,03,39,2.90
2007,10,30,03,40,2.80
2007,10,30,03,41,2.80
2007,10,30,03,42,2.80
2007,10,30,03,43,2.80
2007,10,30,03,44,2.80
2007,10,30,03,45,2.80
2007,10,30,03,46,2.90
2007,10,30,03,47,2.90
2007,10,30,03,48,3.00
2007,10,30,03,49,3.00
2007,10,30,03,50,3.00
2007,10,30,03,51,3.00
2007,10,30,03,52,3.10
2007,10,30,03,53,3.10
2007,10,30,03,54,3.10
2007,10,30,03,55,3.10
2007,10,30,03,56,3.20
2007,10,30,03,57,3.20
2007,10,30,03,58,3.20
2007,10,30,03,59,3.20
2007,10,30,04,00,3.20
2007,10,30,04,01,3.20
2007,10,30,04,02,3.20
2007,10,30,04,03,3.20
2007,10,30,04,04,3.20
2007,10,30,04,05,3.20
2007,10,30,04,06,3.20
2007,10,30,04,07,3.20
2007,10,30,04,08,3.20
2007,10,30,04,09,3.20
2007,10,30,04,10,3.20
2007,10,30,04,11,3.10
2007,10,30,04,12,3.10
2007,10,30,04,13,3.10
2007,10,30,04,14,3.10
2007,10,30,04,15,3.10
2007,10,30,04,16,3.10
2007,10,30,04,17,3.10
2007,10,30,04,18,3.00
2007,10,30,04,19,3.00
2007,10,30,04,20,3.00
2007,10,30,04,21,3.00
2007,10,30,04,22,3.00
2007,10,30,04,23,2.90
2007,10,30,04,24,2.90
2007,10,30,04,25,2.80
2007,10,30,04,26,2.80
2007,10,30,04,27,2.70
2007,10,30,04,28,2.70
2007,10,30,04,29,2.70
2007,10,30,04,30,2.70
2007,10,30,04,31,2.70
2007,10,30,04,32,2.70
2007,10,30,04,33,2.80
2007,10,30,04,34,2.80
2007,10,30,04,35,2.80
2007,10,30,04,36,2.70
2007,10,30,04,37,2.70
2007,10,30,04,38,2.70
2007,10,30,04,39,2.60
2007,10,30,04,40,2.60
2007,10,30,04,41,2.50
2007,10,30,04,42,2.40
2007,10,30,04,43,2.30
2007,10,30,04,44,2.30
2007,10,30,04,45,2.30
2007,10,30,04,46,2.20
2007,10,30,04,47,2.10
2007,10,30,04,48,2.10
2007,10,30,04,49,2.00
2007,10,30,04,50,2.00
2007,10,30,04,51,1.80
2007,10,30,04,52,1.70
2007,10,30,04,53,1.70
2007,10,30,04,54,1.60
2007,10,30,04,55,1.60
2007,10,30,04,56,1.60
2007,10,30,04,57,1.60
2007,10,30,04,58,1.60
2007,10,30,04,59,1.60
2007,10,30,05,00,1.70
2007,10,30,05,01,1.70
2007,10,30,05,02,1.70
2007,10,30,05,03,1.70
2007,10,30,05,04,1.70
2007,10,30,05,05,1.70
2007,10,30,05,06,1.70
2007,10,30,05,07,1.70
2007,10,30,05,08,1.60
2007,10,30,05,09,1.60
2007,10,30,05,10,1.50
2007,10,30,05,11,1.40
2007,10,30,05,12,1.30
2007,10,30,05,13,1.30
2007,10,30,05,14,1.30
2007,10,30,05,15,1.30
2007,10,30,05,16,1.30
2007,10,30,05,17,1.30
2007,10,30,05,18,1.30
2007,10,30,05,19,1.30
2007,10,30,05,20,1.40
2007,10,30,05,21,1.40
2007,10,30,05,22,1.50
2007,10,30,05,23,1.50
2007,10,30,05,24,1.70
2007,10,30,05,25,1.70
2007,10,30,05,26,1.90
2007,10,30,05,27,2.00
2007,10,30,05,28,2.20
2007,10,30,05,29,2.20
2007,10,30,05,30,2.30
2007,10,30,05,31,2.40
2007,10,30,05,32,2.40
2007,10,30,05,33,2.50
2007,10,30,05,34,2.40
2007,10,30,05,35,2.40
2007,10,30,05,36,2.40
2007,10,30,05,37,2.30
2007,10,30,05,38,2.30
2007,10,30,05,39,2.20
2007,10,30,05,40,2.10
2007,10,30,05,41,2.10
2007,10,30,05,42,2.00
2007,10,30,05,43,2.00
2007,10,30,05,44,2.10
2007,10,30,05,45,2.00
2007,10,30,05,46,2.00
2007,10,30,05,47,2.00
2007,10,30,05,48,2.10
2007,10,30,05,49,2.10
2007,10,30,05,50,2.10
2007,10,30,05,51,2.10
2007,10,30,05,52,2.00
2007,10,30,05,53,2.00
2007,10,30,05,54,1.90
2007,10,30,05,55,1.80
2007,10,30,05,56,1.80
2007,10,30,05,57,1.80
2007,10,30,05,58,1.80
2007,10,30,05,59,1.80
2007,10,30,06,00,1.80
2007,10,30,06,01,1.70
2007,10,30,06,02,1.70
2007,10,30,06,03,1.70
2007,10,30,06,04,1.70
2007,10,30,06,05,1.80
2007,10,30,06,06,1.80
2007,10,30,06,07,1.90
2007,10,30,06,08,1.90
2007,10,30,06,09,1.90
2007,10,30,06,10,2.00
2007,10,30,06,11,2.00
2007,10,30,06,12,2.00
2007,10,30,06,13,2.10
2007,10,30,06,14,2.20
2007,10,30,06,15,2.30
2007,10,30,06,16,2.30
2007,10,30,06,17,2.20
2007,10,30,06,18,2.20
2007,10,30,06,19,2.10
2007,10,30,06,20,2.10
2007,10,30,06,21,2.10
2007,10,30,06,22,2.10
2007,10,30,06,23,2.10
2007,10,30,06,24,2.10
2007,10,30,06,25,2.10
2007,10,30,06,26,2.10
2007,10,30,06,27,2.00
2007,10,30,06,28,2.00
2007,10,30,06,29,1.90
2007,10,30,06,30,1.90
2007,10,30,06,31,1.80
2007,10,30,06,32,1.80
2007,10,30,06,33,1.80
2007,10,30,06,34,1.80
2007,10,30,06,35,1.80
2007,10,30,06,36,1.90
2007,10,30,06,37,1.80
2007,10,30,06,38,1.80
2007,10,30,06,39,1.80
2007,10,30,06,40,1.70
2007,10,30,06,41,1.70
2007,10,30,06,42,1.60
2007,10,30,06,43,1.60
2007,10,30,06,44,1.60
2007,10,30,06,45,1.60
2007,10,30,06,46,1.70
2007,10,30,06,47,1.70
2007,10,30,06,48,1.70
2007,10,30,06,49,1.70
2007,10,30,06,50,1.70
2007,10,30,06,51,1.70
2007,10,30,06,52,1.80
2007,10,30,06,53,1.80
2007,10,30,06,54,1.90
2007,10,30,06,55,2.00
2007,10,30,06,56,2.00
2007,10,30,06,57,2.10
2007,10,30,06,58,2.10
2007,10,30,06,59,2.20
2007,10,30,07,00,2.20
2007,10,30,07,01,2.10
2007,10,30,07,02,2.10
2007,10,30,07,03,2.00
2007,10,30,07,04,1.90
2007,10,30,07,05,1.90
2007,10,30,07,06,1.80
2007,10,30,07,07,1.70
2007,10,30,07,08,1.70
2007,10,30,07,09,1.60
2007,10,30,07,10,1.50
2007,10,30,07,11,1.50
2007,10,30,07,12,1.40
2007,10,30,07,13,1.40
2007,10,30,07,14,1.40
2007,10,30,07,15,1.40
2007,10,30,07,16,1.40
2007,10,30,07,17,1.40
2007,10,30,07,18,1.40
2007,10,30,07,19,1.40
2007,10,30,07,20,1.40
2007,10,30,07,21,1.40
2007,10,30,07,22,1.40
2007,10,30,07,23,1.40
2007,10,30,07,24,1.30
2007,10,30,07,25,1.30
2007,10,30,07,26,1.30
2007,10,30,07,27,1.30
2007,10,30,07,28,1.30
2007,10,30,07,29,1.40
2007,10,30,07,30,1.50
2007,10,30,07,31,1.60
2007,10,30,07,32,1.60
2007,10,30,07,33,1.70
2007,10,30,07,34,1.70
2007,10,30,07,35,1.70
2007,10,30,07,36,1.80
2007,10,30,07,37,1.70
2007,10,30,07,38,1.70
2007,10,30,07,39,1.70
2007,10,30,07,40,1.70
2007,10,30,07,41,1.70
2007,10,30,07,42,1.70
2007,10,30,07,43,1.70
2007,10,30,07,44,1.60
2007,10,30,07,45,1.60
2007,10,30,07,46,1.50
2007,10,30,07,47,1.40
2007,10,30,07,48,1.30
2007,10,30,07,49,1.30
2007,10,30,07,50,1.20
2007,10,30,07,51,1.10
2007,10,30,07,52,1.00
2007,10,30,07,53,0.90
2007,10,30,07,54,0.80
2007,10,30,07,55,0.80
2007,10,30,07,56,0.70
2007,10,30,07,57,0.60
2007,10,30,07,58,0.50
2007,10,30,07,59,0.40
2007,10,30,08,00,0.30
2007,10,30,08,01,0.40
2007,10,30,08,02,0.50
2007,10,30,08,03,0.60
2007,10,30,08,04,0.60
2007,10,30,08,05,0.70
2007,10,30,08,06,0.70
2007,10,30,08,07,0.70
2007,10,30,08,08,0.70
2007,10,30,08,09,0.70
2007,10,30,08,10,0.70
2007,10,30,08,11,0.70
2007,10,30,08,12,0.90
2007,10,30,08,13,1.00
2007,10,30,08,14,1.00
2007,10,30,08,15,1.10
2007,10,30,08,16,1.10
2007,10,30,08,17,1.00
2007,10,30,08,18,1.00
2007,10,30,08,19,1.00
2007,10,30,08,20,1.00
2007,10,30,08,21,1.00
2007,10,30,08,22,1.10
2007,10,30,08,23,1.10
2007,10,30,08,24,1.10
2007,10,30,08,25,1.20
2007,10,30,08,26,1.20
2007,10,30,08,27,1.20
2007,10,30,08,28,1.20
2007,10,30,08,29,1.20
2007,10,30,08,30,1.10
2007,10,30,08,31,1.10
2007,10,30,08,32,1.10
2007,10,30,08,33,1.10
2007,10,30,08,34,1.20
2007,10,30,08,35,1.20
2007,10,30,08,36,1.30
2007,10,30,08,37,1.30
2007,10,30,08,38,1.30
2007,10,30,08,39,1.30
2007,10,30,08,40,1.30
2007,10,30,08,41,1.30
2007,10,30,08,42,1.30
2007,10,30,08,43,1.30
2007,10,30,08,44,1.40
2007,10,30,08,45,1.40
2007,10,30,08,46,1.50
2007,10,30,08,47,1.60
2007,10,30,08,48,1.60
2007,10,30,08,49,1.70
2007,10,30,08,50,1.70
2007,10,30,08,51,1.80
2007,10,30,08,52,1.80
2007,10,30,08,53,1.90
2007,10,30,08,54,2.00
2007,10,30,08,55,2.10
2007,10,30,08,56,2.10
2007,10,30,08,57,2.20
2007,10,30,08,58,2.20
2007,10,30,08,59,2.20
2007,10,30,09,00,2.20
2007,10,30,09,01,2.20
2007,10,30,09,02,2.20
2007,10,30,09,03,2.30
2007,10,30,09,04,2.30
2007,10,30,09,05,2.30
2007,10,30,09,06,2.30
2007,10,30,09,07,2.30
2007,10,30,09,08,2.40
2007,10,30,09,09,2.40
2007,10,30,09,10,2.40
2007,10,30,09,11,2.40
2007,10,30,09,12,2.50
2007,10,30,09,13,2.50
2007,10,30,09,14,2.60
2007,10,30,09,15,2.60
2007,10,30,09,16,2.70
2007,10,30,09,17,2.70
2007,10,30,09,18,2.70
2007,10,30,09,19,2.80
2007,10,30,09,20,2.80
2007,10,30,09,21,2.80
2007,10,30,09,22,2.90
2007,10,30,09,23,2.90
2007,10,30,09,24,2.90
2007,10,30,09,25,3.00
2007,10,30,09,26,3.00
2007,10,30,09,27,3.10
2007,10,30,09,28,3.10
2007,10,30,09,29,3.10
2007,10,30,09,30,3.20
2007,10,30,09,31,3.20
2007,10,30,09,32,3.20
2007,10,30,09,33,3.30
2007,10,30,09,34,3.30
2007,10,30,09,35,3.30
2007,10,30,09,36,3.30
2007,10,30,09,37,3.40
2007,10,30,09,38,3.40
2007,10,30,09,39,3.50
2007,10,30,09,40,3.50
2007,10,30,09,41,3.60
2007,10,30,09,42,3.60
2007,10,30,09,43,3.60
2007,10,30,09,44,3.70
2007,10,30,09,45,3.70
2007,10,30,09,46,3.70
2007,10,30,09,47,3.80
2007,10,30,09,48,3.80
2007,10,30,09,49,3.80
2007,10,30,09,50,3.90
2007,10,30,09,51,3.90
2007,10,30,09,52,4.00
2007,10,30,09,53,4.10
2007,10,30,09,54,4.10
2007,10,30,09,55,4.20
2007,10,30,09,56,4.20
2007,10,30,09,57,4.30
2007,10,30,09,58,4.30
2007,10,30,09,59,4.40
2007,10,30,10,00,4.40
2007,10,30,10,01,4.50
2007,10,30,10,02,4.60
2007,10,30,10,03,4.60
2007,10,30,10,04,4.70
2007,10,30,10,05,4.70
2007,10,30,10,06,4.80
2007,10,30,10,07,4.80
2007,10,30,10,08,4.90
2007,10,30,10,09,5.00
2007,10,30,10,10,5.00
2007,10,30,10,11,5.10
2007,10,30,10,12,5.10
2007,10,30,10,13,5.20
2007,10,30,10,14,5.20
2007,10,30,10,15,5.30
2007,10,30,10,16,5.30
2007,10,30,10,17,5.30
2007,10,30,10,18,5.30
2007,10,30,10,19,5.40
2007,10,30,10,20,5.40
2007,10,30,10,21,5.40
2007,10,30,10,22,5.40
2007,10,30,10,23,5.50
2007,10,30,10,24,5.50
2007,10,30,10,25,5.60
2007,10,30,10,26,5.60
2007,10,30,10,27,5.60
2007,10,30,10,28,5.70
2007,10,30,10,29,5.70
2007,10,30,10,30,5.70
2007,10,30,10,31,5.80
2007,10,30,10,32,5.80
2007,10,30,10,33,5.90
2007,10,30,10,34,5.90
2007,10,30,10,35,6.00
2007,10,30,10,36,6.00
2007,10,30,10,37,6.10
2007,10,30,10,38,6.10
2007,10,30,10,39,6.10
2007,10,30,10,40,6.20
2007,10,30,10,41,6.20
2007,10,30,10,42,6.20
2007,10,30,10,43,6.30
2007,10,30,10,44,6.30
2007,10,30,10,45,6.30
2007,10,30,10,46,6.40
2007,10,30,10,47,6.40
2007,10,30,10,48,6.50
2007,10,30,10,49,6.50
2007,10,30,10,50,6.60
2007,10,30,10,51,6.60
2007,10,30,10,52,6.60
2007,10,30,10,53,6.60
2007,10,30,10,54,6.70
2007,10,30,10,55,6.70
2007,10,30,10,56,6.70
2007,10,30,10,57,6.80
2007,10,30,10,58,6.80
2007,10,30,10,59,6.80
2007,10,30,11,00,6.90
2007,10,30,11,01,6.90
2007,10,30,11,02,6.90
2007,10,30,11,03,7.00
2007,10,30,11,04,7.00
2007,10,30,11,05,7.10
2007,10,30,11,06,7.10
2007,10,30,11,07,7.20
2007,10,30,11,08,7.20
2007,10,30,11,09,7.20
2007,10,30,11,10,7.30
2007,10,30,11,11,7.30
2007,10,30,11,12,7.30
2007,10,30,11,13,7.40
2007,10,30,11,14,7.40
2007,10,30,11,15,7.40
2007,10,30,11,16,7.40
2007,10,30,11,17,7.40
2007,10,30,11,18,7.50
2007,10,30,11,19,7.50
2007,10,30,11,20,7.50
2007,10,30,11,21,7.60
2007,10,30,11,22,7.60
2007,10,30,11,23,7.60
2007,10,30,11,24,7.60
2007,10,30,11,25,7.60
2007,10,30,11,26,7.50
2007,10,30,11,27,7.60
2007,10,30,11,28,7.60
2007,10,30,11,29,7.60
2007,10,30,11,30,7.60
2007,10,30,11,31,7.60
2007,10,30,11,32,7.60
2007,10,30,11,33,7.60
2007,10,30,11,34,7.70
2007,10,30,11,35,7.70
2007,10,30,11,36,7.80
2007,10,30,11,37,7.80
2007,10,30,11,38,7.80
2007,10,30,11,39,7.90
2007,10,30,11,40,7.90
2007,10,30,11,41,7.90
2007,10,30,11,42,7.90
2007,10,30,11,43,7.90
2007,10,30,11,44,8.00
2007,10,30,11,45,8.00
2007,10,30,11,46,8.00
2007,10,30,11,47,8.10
2007,10,30,11,48,8.10
2007,10,30,11,49,8.10
2007,10,30,11,50,8.10
2007,10,30,11,51,8.10
2007,10,30,11,52,8.10
2007,10,30,11,53,8.10
2007,10,30,11,54,8.10
2007,10,30,11,55,8.10
2007,10,30,11,56,8.10
2007,10,30,11,57,8.10
2007,10,30,11,58,8.20
2007,10,30,11,59,8.20
2007,10,30,12,00,8.20
2007,10,30,12,01,8.20
2007,10,30,12,02,8.30
2007,10,30,12,03,8.30
2007,10,30,12,04,8.30
2007,10,30,12,05,8.30
2007,10,30,12,06,8.30
2007,10,30,12,07,8.20
2007,10,30,12,08,8.20
2007,10,30,12,09,8.30
2007,10,30,12,10,8.30
2007,10,30,12,11,8.30
2007,10,30,12,12,8.30
2007,10,30,12,13,8.30
2007,10,30,12,14,8.20
2007,10,30,12,15,8.20
2007,10,30,12,16,8.20
2007,10,30,12,17,8.20
2007,10,30,12,18,8.20
2007,10,30,12,19,8.30
2007,10,30,12,20,8.30
2007,10,30,12,21,8.40
2007,10,30,12,22,8.40
2007,10,30,12,23,8.50
2007,10,30,12,24,8.50
2007,10,30,12,25,8.60
2007,10,30,12,26,8.60
2007,10,30,12,27,8.60
2007,10,30,12,28,8.70
2007,10,30,12,29,8.70
2007,10,30,12,30,8.70
2007,10,30,12,31,8.70
2007,10,30,12,32,8.70
2007,10,30,12,33,8.70
2007,10,30,12,34,8.70
2007,10,30,12,35,8.70
2007,10,30,12,36,8.70
2007,10,30,12,37,8.70
2007,10,30,12,38,8.70
2007,10,30,12,39,8.70
2007,10,30,12,40,8.70
2007,10,30,12,41,8.70
2007,10,30,12,42,8.70
2007,10,30,12,43,8.60
2007,10,30,12,44,8.60
2007,10,30,12,45,8.60
2007,10,30,12,46,8.60
2007,10,30,12,47,8.60
2007,10,30,12,48,8.60
2007,10,30,12,49,8.60
2007,10,30,12,50,8.60
2007,10,30,12,51,8.60
2007,10,30,12,52,8.60
2007,10,30,12,53,8.70
2007,10,30,12,54,8.70
2007,10,30,12,55,8.80
2007,10,30,12,56,9.00
2007,10,30,12,57,9.00
2007,10,30,12,58,9.10
2007,10,30,12,59,9.10
2007,10,30,13,00,9.20
2007,10,30,13,01,9.20
2007,10,30,13,02,9.20
2007,10,30,13,03,9.30
2007,10,30,13,04,9.20
2007,10,30,13,05,9.30
2007,10,30,13,06,9.30
2007,10,30,13,07,9.40
2007,10,30,13,08,9.40
2007,10,30,13,09,9.40
2007,10,30,13,10,9.30
2007,10,30,13,11,9.20
2007,10,30,13,12,9.20
2007,10,30,13,13,9.10
2007,10,30,13,14,9.00
2007,10,30,13,15,9.00
2007,10,30,13,16,8.90
2007,10,30,13,17,8.90
2007,10,30,13,18,8.90
2007,10,30,13,19,8.80
2007,10,30,13,20,8.80
2007,10,30,13,21,8.80
2007,10,30,13,22,8.80
2007,10,30,13,23,8.80
2007,10,30,13,24,8.80
2007,10,30,13,25,8.90
2007,10,30,13,26,9.00
2007,10,30,13,27,9.10
2007,10,30,13,28,9.10
2007,10,30,13,29,9.20
2007,10,30,13,30,9.20
2007,10,30,13,31,9.40
2007,10,30,13,32,9.50
2007,10,30,13,33,9.60
2007,10,30,13,34,9.60
2007,10,30,13,35,9.70
2007,10,30,13,36,9.80
2007,10,30,13,37,9.80
2007,10,30,13,38,9.90
2007,10,30,13,39,10.00
2007,10,30,13,40,10.10
2007,10,30,13,41,10.20
2007,10,30,13,42,10.20
2007,10,30,13,43,10.00
2007,10,30,13,44,9.90
2007,10,30,13,45,9.80
2007,10,30,13,46,9.70
2007,10,30,13,47,9.70
2007,10,30,13,48,9.60
2007,10,30,13,49,9.60
2007,10,30,13,50,9.60
2007,10,30,13,51,9.60
2007,10,30,13,52,9.60
2007,10,30,13,53,9.60
2007,10,30,13,54,9.50
2007,10,30,13,55,9.50
2007,10,30,13,56,9.50
2007,10,30,13,57,9.40
2007,10,30,13,58,9.40
2007,10,30,13,59,9.30
2007,10,30,14,00,9.20
2007,10,30,14,01,9.20
2007,10,30,14,02,9.10
2007,10,30,14,03,9.10
2007,10,30,14,04,9.10
2007,10,30,14,05,9.20
2007,10,30,14,06,9.20
2007,10,30,14,07,9.30
2007,10,30,14,08,9.30
2007,10,30,14,09,9.40
2007,10,30,14,10,9.50
2007,10,30,14,11,9.50
2007,10,30,14,12,9.40
2007,10,30,14,13,9.40
2007,10,30,14,14,9.40
2007,10,30,14,15,9.30
2007,10,30,14,16,9.30
2007,10,30,14,17,9.30
2007,10,30,14,18,9.30
2007,10,30,14,19,9.30
2007,10,30,14,20,9.30
2007,10,30,14,21,9.30
2007,10,30,14,22,9.30
2007,10,30,14,23,9.30
2007,10,30,14,24,9.30
2007,10,30,14,25,9.30
2007,10,30,14,26,9.20
2007,10,30,14,27,9.20
2007,10,30,14,28,9.20
2007,10,30,14,29,9.20
2007,10,30,14,30,9.20
2007,10,30,14,31,9.30
2007,10,30,14,32,9.30
2007,10,30,14,33,9.30
2007,10,30,14,34,9.30
2007,10,30,14,35,9.40
2007,10,30,14,36,9.50
2007,10,30,14,37,9.60
2007,10,30,14,38,9.60
2007,10,30,14,39,9.70
2007,10,30,14,40,9.70
2007,10,30,14,41,9.60
2007,10,30,14,42,9.50
2007,10,30,14,43,9.50
2007,10,30,14,44,9.50
2007,10,30,14,45,9.50
2007,10,30,14,46,9.60
2007,10,30,14,47,9.60
2007,10,30,14,48,9.60
2007,10,30,14,49,9.60
2007,10,30,14,50,9.60
2007,10,30,14,51,9.70
2007,10,30,14,52,9.70
2007,10,30,14,53,9.80
2007,10,30,14,54,9.80
2007,10,30,14,55,9.80
2007,10,30,14,56,9.80
2007,10,30,14,57,9.70
2007,10,30,14,58,9.70
2007,10,30,14,59,9.70
2007,10,30,15,00,9.70
2007,10,30,15,01,9.70
2007,10,30,15,02,9.70
2007,10,30,15,03,9.70
2007,10,30,15,04,9.80
2007,10,30,15,05,9.80
2007,10,30,15,06,9.80
2007,10,30,15,07,9.80
2007,10,30,15,08,9.70
2007,10,30,15,09,9.60
2007,10,30,15,10,9.50
2007,10,30,15,11,9.50
2007,10,30,15,12,9.40
2007,10,30,15,13,9.30
2007,10,30,15,14,9.20
2007,10,30,15,15,9.10
2007,10,30,15,16,9.10
2007,10,30,15,17,9.00
2007,10,30,15,18,9.00
2007,10,30,15,19,9.10
2007,10,30,15,20,9.10
2007,10,30,15,21,9.10
2007,10,30,15,22,9.10
2007,10,30,15,23,9.20
2007,10,30,15,24,9.30
2007,10,30,15,25,9.30
2007,10,30,15,26,9.30
2007,10,30,15,27,9.30
2007,10,30,15,28,9.30
2007,10,30,15,29,9.30
2007,10,30,15,30,9.20
2007,10,30,15,31,9.20
2007,10,30,15,32,9.30
2007,10,30,15,33,9.30
2007,10,30,15,34,9.40
2007,10,30,15,35,9.40
2007,10,30,15,36,9.40
2007,10,30,15,37,9.40
2007,10,30,15,38,9.40
2007,10,30,15,39,9.40
2007,10,30,15,40,9.40
2007,10,30,15,41,9.40
2007,10,30,15,42,9.40
2007,10,30,15,43,9.50
2007,10,30,15,44,9.60
2007,10,30,15,45,9.60
2007,10,30,15,46,9.60
2007,10,30,15,47,9.60
2007,10,30,15,48,9.60
2007,10,30,15,49,9.70
2007,10,30,15,50,9.70
2007,10,30,15,51,9.70
2007,10,30,15,52,9.70
2007,10,30,15,53,9.80
2007,10,30,15,54,9.80
2007,10,30,15,55,9.80
2007,10,30,15,56,9.70
2007,10,30,15,57,9.70
2007,10,30,15,58,9.60
2007,10,30,15,59,9.60
2007,10,30,16,00,9.60
2007,10,30,16,01,9.60
2007,10,30,16,02,9.50
2007,10,30,16,03,9.40
2007,10,30,16,04,9.40
2007,10,30,16,05,9.40
2007,10,30,16,06,9.40
2007,10,30,16,07,9.40
2007,10,30,16,08,9.40
2007,10,30,16,09,9.30
2007,10,30,16,10,9.30
2007,10,30,16,11,9.30
2007,10,30,16,12,9.30
2007,10,30,16,13,9.30
2007,10,30,16,14,9.30
2007,10,30,16,15,9.30
2007,10,30,16,16,9.30
2007,10,30,16,17,9.30
2007,10,30,16,18,9.30
2007,10,30,16,19,9.30
2007,10,30,16,20,9.30
2007,10,30,16,21,9.40
2007,10,30,16,22,9.40
2007,10,30,16,23,9.50
2007,10,30,16,24,9.50
2007,10,30,16,25,9.50
2007,10,30,16,26,9.50
2007,10,30,16,27,9.50
2007,10,30,16,28,9.50
2007,10,30,16,29,9.50
2007,10,30,16,30,9.40
2007,10,30,16,31,9.40
2007,10,30,16,32,9.40
2007,10,30,16,33,9.40
2007,10,30,16,34,9.40
2007,10,30,16,35,9.40
2007,10,30,16,36,9.40
2007,10,30,16,37,9.50
2007,10,30,16,38,9.50
2007,10,30,16,39,9.50
2007,10,30,16,40,9.50
2007,10,30,16,41,9.40
2007,10,30,16,42,9.40
2007,10,30,16,43,9.40
2007,10,30,16,44,9.30
2007,10,30,16,45,9.30
2007,10,30,16,46,9.30
2007,10,30,16,47,9.30
2007,10,30,16,48,9.30
2007,10,30,16,49,9.30
2007,10,30,16,50,9.30
2007,10,30,16,51,9.30
2007,10,30,16,52,9.30
2007,10,30,16,53,9.20
2007,10,30,16,54,9.20
2007,10,30,16,55,9.20
2007,10,30,16,56,9.20
2007,10,30,16,57,9.20
2007,10,30,16,58,9.20
2007,10,30,16,59,9.20
2007,10,30,17,00,9.20
2007,10,30,17,01,9.20
2007,10,30,17,02,9.10
2007,10,30,17,03,9.10
2007,10,30,17,04,9.10
2007,10,30,17,05,9.10
2007,10,30,17,06,9.10
2007,10,30,17,07,9.10
2007,10,30,17,08,9.10
2007,10,30,17,09,9.10
2007,10,30,17,10,9.10
2007,10,30,17,11,9.10
2007,10,30,17,12,9.10
2007,10,30,17,13,9.10
2007,10,30,17,14,9.10
2007,10,30,17,15,9.10
2007,10,30,17,16,9.10
2007,10,30,17,17,9.10
2007,10,30,17,18,9.10
2007,10,30,17,19,9.10
2007,10,30,17,20,9.00
2007,10,30,17,21,9.00
2007,10,30,17,22,9.00
2007,10,30,17,23,9.00
2007,10,30,17,24,8.90
2007,10,30,17,25,8.90
2007,10,30,17,26,8.90
2007,10,30,17,27,8.90
2007,10,30,17,28,8.80
2007,10,30,17,29,8.80
2007,10,30,17,30,8.70
2007,10,30,17,31,8.70
2007,10,30,17,32,8.60
2007,10,30,17,33,8.60
2007,10,30,17,34,8.60
2007,10,30,17,35,8.60
2007,10,30,17,36,8.60
2007,10,30,17,37,8.50
2007,10,30,17,38,8.50
2007,10,30,17,39,8.50
2007,10,30,17,40,8.40
2007,10,30,17,41,8.40
2007,10,30,17,42,8.40
2007,10,30,17,43,8.40
2007,10,30,17,44,8.40
2007,10,30,17,45,8.40
2007,10,30,17,46,8.30
2007,10,30,17,47,8.30
2007,10,30,17,48,8.30
2007,10,30,17,49,8.20
2007,10,30,17,50,8.20
2007,10,30,17,51,8.20
2007,10,30,17,52,8.20
2007,10,30,17,53,8.10
2007,10,30,17,54,8.10
2007,10,30,17,55,8.10
2007,10,30,17,56,8.00
2007,10,30,17,57,8.00
2007,10,30,17,58,8.00
2007,10,30,17,59,7.90
2007,10,30,18,00,7.90
2007,10,30,18,01,7.90
2007,10,30,18,02,7.80
2007,10,30,18,03,7.80
2007,10,30,18,04,7.80
2007,10,30,18,05,7.80
2007,10,30,18,06,7.70